Lær å fly hos oss!

Oslo Flyveklubb har i mange år utdannet flygere til privatflygersetifikat PPL(A). Skolen har godkjenning for å drive utdanning til teoriundervisning til PPL(A), privatflygersertifikat PPL (A) og mørkeflyging.

Gi bort en flytur i gave

På en introduksjonstur vil kandidaten være med på forberedelser til, og gjennomføring av en flytur på en times varighet med en av våre instruktører.

Hvor vi holder til?

Flyplassen ligger i Lillestrøm 10 minutter med tog fra Oslo. Følg storgata fra Lillestrøms sentrum så vill man se plassen på venstre side.
3 weeks ago
Start støtteundervisning

Undervisning vil bli holdt onsdager fra klokken 19:00-21:00 i klubbens lokal på Kjeller. Vi kommer dessuten holde en Refresh-kurs søndag den 11 mars da eksamensdato for PPL-A er den 16 mars. Det er ... See more

Undervisning vil bli holdt onsdager fra klokken 19:00-21:00 i klubbens lokal på Kjeller. Vi kommer dessuten holde en Refresh-kurs søndag den 11 mars da eksamensdato for PPL-A er den 16 mars. Det er ... See more

LIKE
LOVE
HAHA
WOW
SAD
ANGRY
Metar/TAF Gardermoen:

ENGM 170320Z 36004KT 320V030 CAVOK M11/M13 Q1012

TAF ENGM 161700Z 1618/1718 36005KT CAVOK